Date String (YYYY-MM-DD hh:mm:ss) UTC,Instrument flags,Ambient pressure (hPa),Sample flow (lpm),Bypass flow (lpm),Sample temperature (°C),Ambient temperature (°C),ASC tube jacket temperature (°C),LED temperature (°C),Box temperature (°C),Sample RH (%),Span deviation,Mass concentration (μg/m³),Mass concentration (μg/m³),Mass concentration (μg/m³)
DateTimeUTC,F1_M11,P_M11,Q1_M11,Q2_M11,T1_M11,T2_M11,T3_M11,T4_M11,T5_M11,U1_M11,ZSPAN_M11,X0_M11,X2_M11,X1_M11
2021-12-19 08:00:00,,0824.9,4.98,0.00,22.9,23.3,00.0,31.7,24.8,07.1,0000.0,0019.07,0007.74,0006.49
2021-12-19 08:01:00,,0824.9,5.01,0.00,22.9,23.1,00.0,31.7,24.8,07.1,0000.0,0018.93,0007.76,0006.51
2021-12-19 08:02:00,,0824.9,5.00,0.00,22.9,22.9,00.0,31.7,24.7,07.1,0000.0,0018.29,0007.78,0006.53
2021-12-19 08:03:00,,0824.9,5.00,0.00,22.9,22.7,00.0,31.7,24.7,07.1,0000.0,0019.32,0007.91,0006.55
2021-12-19 08:04:00,,0824.9,4.99,0.00,22.9,22.6,00.0,31.7,24.6,07.1,0000.0,0019.73,0008.00,0006.58
2021-12-19 08:05:00,,0824.8,5.01,0.00,22.9,22.4,00.0,31.7,24.6,07.2,0000.0,0020.17,0008.04,0006.63
2021-12-19 08:06:00,,0824.8,4.99,0.00,22.8,22.3,00.0,31.7,24.6,07.2,0000.0,0020.64,0008.06,0006.65
2021-12-19 08:07:00,,0824.9,5.00,0.00,22.8,22.2,00.0,31.7,24.6,07.1,0000.0,0020.90,0008.11,0006.67
2021-12-19 08:08:00,,0824.9,5.00,0.00,22.8,22.2,00.0,31.7,24.5,07.1,0000.0,0020.57,0008.07,0006.67
2021-12-19 08:09:00,,0824.8,5.00,0.00,22.8,22.1,00.0,31.7,24.4,07.1,0000.0,0020.42,0008.04,0006.67
2021-12-19 08:10:00,,0824.8,5.00,0.00,22.8,22.0,00.0,31.7,24.4,07.2,0000.0,0021.50,0008.12,0006.68
2021-12-19 08:11:00,,0824.9,4.99,0.00,22.7,22.0,00.0,31.7,24.4,07.2,0000.0,0021.77,0008.09,0006.68
2021-12-19 08:12:00,,0824.9,5.01,0.00,22.7,21.9,00.0,31.7,24.4,07.2,0000.0,0021.79,0008.10,0006.68
2021-12-19 08:13:00,,0824.8,5.01,0.00,22.7,21.9,00.0,31.7,24.4,07.2,0000.0,0021.87,0008.09,0006.68
2021-12-19 08:14:00,,0824.8,4.99,0.00,22.7,21.9,00.0,31.7,24.4,07.3,0000.0,0021.37,0008.03,0006.67
2021-12-19 08:15:00,,0824.8,5.01,0.00,22.7,21.8,00.0,31.7,24.4,07.3,0000.0,0020.68,0007.98,0006.65
2021-12-19 08:16:00,,0824.8,5.01,0.00,22.7,21.8,00.0,31.7,24.3,07.3,0000.0,0020.20,0007.96,0006.63
2021-12-19 08:17:00,,0824.8,4.99,0.00,22.6,21.8,00.0,31.7,24.3,07.3,0000.0,0020.14,0007.98,0006.62
2021-12-19 08:18:00,,0824.8,5.01,0.00,22.6,21.7,00.0,31.7,24.2,07.2,0001.1,0020.36,0007.98,0006.62
2021-12-19 08:19:00,,0824.8,5.01,0.00,22.6,21.7,00.0,31.6,24.2,07.2,0004.8,0019.90,0008.02,0006.63
2021-12-19 08:20:00,,0824.8,5.00,0.00,22.6,21.7,00.0,31.6,24.3,07.2,0004.8,0019.46,0008.06,0006.64
2021-12-19 08:21:00,,0824.8,5.00,0.00,22.6,22.2,00.0,31.6,24.4,07.2,0000.7,0018.82,0007.96,0006.61
2021-12-19 08:22:00,,0824.7,5.00,0.00,22.7,23.0,00.0,31.7,24.6,06.9,0000.0,0018.04,0007.95,0006.58
2021-12-19 08:23:00,,0824.7,4.99,0.00,22.9,23.4,00.0,31.7,24.8,06.6,0000.0,0018.30,0007.88,0006.48
2021-12-19 08:24:00,,0824.8,5.00,0.00,22.9,23.3,00.0,31.7,24.8,06.7,0000.0,0018.06,0007.81,0006.41
2021-12-19 08:25:00,,0824.9,5.00,0.00,22.9,23.1,00.0,31.7,24.8,06.9,0000.0,0018.26,0007.79,0006.35
2021-12-19 08:26:00,,0824.8,5.00,0.00,22.9,22.9,00.0,31.8,24.8,07.0,0000.0,0018.80,0007.76,0006.32
2021-12-19 08:27:00,,0824.8,5.00,0.00,22.9,22.7,00.0,31.8,24.7,06.9,0000.0,0018.64,0007.72,0006.30
2021-12-19 08:28:00,,0824.8,5.01,0.00,22.9,22.5,00.0,31.8,24.6,07.0,0000.0,0018.29,0007.66,0006.27
2021-12-19 08:29:00,,0824.9,5.00,0.00,22.9,22.4,00.0,31.8,24.5,07.1,0000.0,0017.98,0007.61,0006.26
2021-12-19 08:30:00,,0824.9,5.00,0.00,22.8,22.3,00.0,31.8,24.5,07.1,0000.0,0018.02,0007.60,0006.28
2021-12-19 08:31:00,,0824.9,4.99,0.00,22.8,22.2,00.0,31.8,24.5,07.2,0000.0,0018.39,0007.61,0006.28
2021-12-19 08:32:00,,0824.9,5.01,0.00,22.8,22.1,00.0,31.8,24.5,07.2,0001.2,0018.28,0007.66,0006.34
2021-12-19 08:33:00,,0824.9,4.99,0.00,22.8,22.0,00.0,31.8,24.5,07.2,0003.0,0018.19,0007.71,0006.43
2021-12-19 08:34:00,,0824.9,5.01,0.00,22.8,22.0,00.0,31.8,24.4,07.3,0003.0,0018.95,0007.86,0006.59
2021-12-19 08:35:00,,0825.0,4.98,0.00,22.7,22.0,00.0,31.7,24.5,07.3,0003.3,0019.77,0008.02,0006.75
2021-12-19 08:36:00,,0825.0,5.01,0.00,22.7,21.9,00.0,31.7,24.4,07.2,0003.3,0019.61,0008.06,0006.85
2021-12-19 08:37:00,,0824.9,5.00,0.00,22.7,21.9,00.0,31.7,24.4,07.3,0003.3,0019.61,0008.21,0006.94
2021-12-19 08:38:00,,0824.9,5.00,0.00,22.7,21.8,00.0,31.7,24.4,07.3,0003.4,0019.91,0008.31,0007.03
2021-12-19 08:39:00,,0825.0,5.00,0.00,22.7,21.8,00.0,31.7,24.4,07.2,0003.9,0019.55,0008.39,0007.08
2021-12-19 08:40:00,,0824.9,4.99,0.00,22.7,21.8,00.0,31.7,24.4,07.1,0003.9,0019.27,0008.43,0007.08
2021-12-19 08:41:00,,0824.8,5.00,0.00,22.7,21.8,00.0,31.7,24.3,07.0,0003.9,0019.12,0008.46,0007.05
2021-12-19 08:42:00,,0824.9,4.99,0.00,22.7,21.8,00.0,31.7,24.3,07.1,0004.2,0019.12,0008.42,0007.03
2021-12-19 08:43:00,,0824.9,5.01,0.00,22.6,21.7,00.0,31.7,24.2,07.2,0003.4,0018.95,0008.39,0007.00
2021-12-19 08:44:00,,0824.9,4.99,0.00,22.6,21.7,00.0,31.6,24.2,07.4,0004.0,0019.83,0008.44,0007.03
2021-12-19 08:45:00,,0824.9,5.00,0.00,22.6,21.7,00.0,31.6,24.2,07.3,0003.6,0019.14,0008.42,0007.01
2021-12-19 08:46:00,,0824.9,5.01,0.00,22.5,21.7,00.0,31.6,24.1,07.2,0002.2,0019.40,0008.39,0006.93
2021-12-19 08:47:00,,0824.8,5.00,0.00,22.6,22.1,00.0,31.6,24.2,07.2,0001.2,0018.85,0008.39,0006.89
2021-12-19 08:48:00,,0824.9,5.00,0.00,22.7,22.8,00.0,31.7,24.5,07.1,0000.0,0018.35,0008.24,0006.82
2021-12-19 08:49:00,,0824.9,5.00,0.00,22.8,23.3,00.0,31.7,24.7,06.8,0000.0,0017.58,0008.08,0006.69
2021-12-19 08:50:00,,0824.9,5.00,0.00,22.9,23.2,00.0,31.7,24.8,06.8,0000.0,0017.88,0007.96,0006.60
2021-12-19 08:51:00,,0824.9,5.00,0.00,22.9,23.0,00.0,31.7,24.7,06.7,0000.0,0017.75,0007.87,0006.55
2021-12-19 08:52:00,,0824.8,5.00,0.00,22.9,22.8,00.0,31.7,24.7,06.5,0000.0,0017.44,0007.75,0006.47
2021-12-19 08:53:00,,0824.8,5.01,0.00,22.9,22.6,00.0,31.7,24.6,06.2,0000.0,0016.35,0007.56,0006.33
2021-12-19 08:54:00,,0824.9,5.00,0.00,22.8,22.5,00.0,31.7,24.6,06.0,0000.0,0015.80,0007.31,0006.14
2021-12-19 08:55:00,,0824.9,5.00,0.00,22.8,22.4,00.0,31.7,24.5,06.3,0000.0,0015.12,0007.06,0005.93
2021-12-19 08:56:00,,0824.9,4.99,0.00,22.8,22.3,00.0,31.7,24.5,06.8,0000.0,0014.51,0006.92,0005.83
2021-12-19 08:57:00,,0824.9,5.02,0.00,22.8,22.2,00.0,31.7,24.5,06.8,0000.0,0014.07,0006.85,0005.80
2021-12-19 08:58:00,,0824.9,4.98,0.00,22.8,22.1,00.0,31.7,24.5,06.8,0000.0,0013.51,0006.75,0005.76
2021-12-19 08:59:00,,0824.8,5.01,0.00,22.8,22.1,00.0,31.7,24.4,06.5,0000.0,0013.35,0006.61,0005.67
